| time (UTC) | temp F | wind direction | speed MPH | gust MPH | rain 1hr in | rain 24hr in | rain mn in | humidity % | barometer mb |
| 20260504000100 | 64 | 305 | 10.0 | 15.0 | 0.00 | 0.00 | 0.00 | 47 | 995.7 |
| 20260503234556 | 65 | 296 | 12.0 | 16.0 | 0.00 | 0.00 | 0.00 | 43 | 995.9 |
| 20260503233101 | 65 | 294 | 13.0 | 21.0 | 0.00 | 0.00 | 0.00 | 43 | 996.2 |
| 20260503231558 | 66 | 314 | 14.0 | 21.0 | 0.00 | 0.00 | 0.00 | 41 | 996.4 |
| 20260503224558 | 66 | 321 | 20.0 | 29.0 | 0.00 | 0.00 | 0.00 | 41 | 997.2 |
| 20260503223055 | 66 | 329 | 17.0 | 23.0 | 0.00 | 0.00 | 0.00 | 39 | 997.1 |
| 20260503221602 | 70 | 327 | 20.0 | 33.0 | 0.00 | 0.00 | 0.00 | 32 | 997.6 |
| 20260503220059 | 71 | 275 | 21.0 | 35.0 | 0.00 | 0.00 | 0.00 | 25 | 997.4 |
| 20260503214603 | 72 | 277 | 23.0 | 37.0 | 0.00 | 0.00 | 0.00 | 25 | 997.7 |
| 20260503213058 | 72 | 270 | 22.0 | 35.0 | 0.00 | 0.00 | 0.00 | 24 | 998.0 |
| 20260503211557 | 73 | 267 | 24.0 | 40.0 | 0.00 | 0.00 | 0.00 | 23 | 998.2 |
| 20260503210059 | 73 | 266 | 28.0 | 37.0 | 0.00 | 0.00 | 0.00 | 23 | 998.6 |
| 20260503204603 | 74 | 273 | 28.0 | 39.0 | 0.00 | 0.00 | 0.00 | 23 | 998.9 |
| 20260503203058 | 74 | 285 | 26.0 | 39.0 | 0.00 | 0.00 | 0.00 | 22 | 999.3 |
| 20260503201558 | 73 | 279 | 25.0 | 37.0 | 0.00 | 0.00 | 0.00 | 23 | 999.7 |
| 20260503200101 | 73 | 264 | 24.0 | 39.0 | 0.00 | 0.00 | 0.00 | 23 | 1000.1 |
| 20260503194609 | 72 | 271 | 19.0 | 30.0 | 0.00 | 0.00 | 0.00 | 25 | 1000.5 |
| 20260503193112 | 73 | 268 | 22.0 | 35.0 | 0.00 | 0.00 | 0.00 | 23 | 1000.8 |
| 20260503191602 | 72 | 273 | 22.0 | 30.0 | 0.00 | 0.00 | 0.00 | 24 | 1001.1 |
| 20260503190110 | 71 | 288 | 20.0 | 30.0 | 0.00 | 0.00 | 0.00 | 24 | 1001.6 |
| 20260503184601 | 70 | 275 | 19.0 | 32.0 | 0.00 | 0.00 | 0.00 | 26 | 1002.2 |
| 20260503183114 | 69 | 267 | 22.0 | 28.0 | 0.00 | 0.00 | 0.00 | 25 | 1002.8 |
| 20260503181602 | 69 | 273 | 19.0 | 32.0 | 0.00 | 0.00 | 0.00 | 25 | 1003.2 |
| 20260503180103 | 70 | 289 | 21.0 | 33.0 | 0.00 | 0.00 | 0.00 | 24 | 1003.7 |
| 20260503174605 | 68 | 266 | 24.0 | 35.0 | 0.00 | 0.00 | 0.00 | 26 | 1003.9 |
| 20260503173113 | 69 | 280 | 20.0 | 37.0 | 0.00 | 0.00 | 0.00 | 26 | 1004.3 |
| 20260503171555 | 69 | 287 | 20.0 | 34.0 | 0.00 | 0.00 | 0.00 | 27 | 1004.5 |
| 20260503150111 | 56 | 238 | 16.0 | 24.0 | 0.00 | 0.00 | 0.00 | 44 | 1007.9 |
| 20260503140119 | 51 | 207 | 11.0 | 17.0 | 0.00 | 0.00 | 0.00 | 56 | 1009.5 |
| 20260503130106 | 42 | 215 | 10.0 | 13.0 | 0.00 | 0.00 | 0.00 | 71 | 1010.0 |
| 20260503110110 | 30 | 318 | 3.0 | 5.0 | 0.00 | 0.00 | 0.00 | 86 | 1011.1 |
| 20260503100108 | 31 | 333 | 2.0 | 4.0 | 0.00 | 0.00 | 0.00 | 85 | 1011.7 |
| 20260503081606 | 30 | 333 | 1.0 | 2.0 | 0.00 | 0.00 | 0.00 | 83 | 1011.8 |
| 20260503071607 | 33 | 333 | 1.0 | 3.0 | 0.00 | 0.00 | 0.00 | 79 | 1012.1 |
| 20260503070104 | 34 | 333 | 1.0 | 3.0 | 0.00 | 0.00 | 0.00 | 76 | 1012.1 |
| 20260503060113 | 37 | 0 | 0.0 | 0.0 | 0.00 | 0.00 | 0.00 | 73 | 1012.1 |
| 20260503054558 | 37 | 0 | 0.0 | 0.0 | 0.00 | 0.00 | 0.00 | 72 | 1012.3 |
| 20260503053058 | 37 | 0 | 0.0 | 0.0 | 0.00 | 0.00 | 0.00 | 71 | 1012.3 |
| 20260503051602 | 38 | 0 | 0.0 | 0.0 | 0.00 | 0.00 | 0.00 | 70 | 1012.3 |
| 20260503050057 | 38 | 0 | 0.0 | 0.0 | 0.00 | 0.00 | 0.00 | 69 | 1012.3 |
| 20260503044554 | 39 | 0 | 0.0 | 4.0 | 0.00 | 0.00 | 0.00 | 69 | 1012.4 |
| 20260503043057 | 41 | 333 | 2.0 | 3.0 | 0.00 | 0.00 | 0.00 | 63 | 1012.5 |
| 20260503041556 | 42 | 333 | 3.0 | 5.0 | 0.00 | 0.00 | 0.00 | 62 | 1012.5 |
| 20260503040055 | 44 | 333 | 3.0 | 8.0 | 0.00 | 0.00 | 0.00 | 58 | 1012.6 |
| 20260503034556 | 47 | 333 | 8.0 | 12.0 | 0.00 | 0.00 | 0.00 | 54 | 1012.8 |
| 20260503033101 | 48 | 334 | 10.0 | 14.0 | 0.00 | 0.00 | 0.00 | 52 | 1012.8 |
| 20260503031558 | 49 | 326 | 10.0 | 15.0 | 0.00 | 0.00 | 0.00 | 50 | 1012.8 |
| 20260503030058 | 49 | 333 | 10.0 | 13.0 | 0.00 | 0.00 | 0.00 | 49 | 1012.7 |
| 20260503024602 | 51 | 321 | 10.0 | 14.0 | 0.00 | 0.00 | 0.00 | 46 | 1012.7 |
| 20260503023103 | 52 | 323 | 10.0 | 15.0 | 0.00 | 0.00 | 0.00 | 43 | 1012.3 |
| 20260503021600 | 53 | 327 | 12.0 | 18.0 | 0.00 | 0.00 | 0.00 | 40 | 1011.9 |
| 20260503020101 | 55 | 333 | 12.0 | 20.0 | 0.00 | 0.00 | 0.00 | 38 | 1011.6 |
| 20260503014624 | 56 | 331 | 14.0 | 20.0 | 0.00 | 0.00 | 0.00 | 37 | 1011.5 |
| 20260503013059 | 58 | 339 | 15.0 | 22.0 | 0.00 | 0.00 | 0.00 | 36 | 1011.2 |
| 20260503011625 | 59 | 338 | 16.0 | 23.0 | 0.00 | 0.00 | 0.00 | 36 | 1011.1 |
| 20260503010059 | 61 | 327 | 19.0 | 26.0 | 0.00 | 0.00 | 0.00 | 37 | 1011.0 |
| 20260503004604 | 62 | 335 | 20.0 | 27.0 | 0.00 | 0.00 | 0.00 | 37 | 1010.9 |
| 20260503003110 | 63 | 325 | 21.0 | 29.0 | 0.00 | 0.00 | 0.00 | 37 | 1010.7 |
| 20260503001604 | 63 | 324 | 16.0 | 23.0 | 0.00 | 0.00 | 0.00 | 41 | 1010.6 |